Flag Weather past 2 weeks in Judenburg, Styria, Austria

Now
39 °F

Broken clouds.


Feels Like: 39 °F
Forecast: 29 / 48 °F
Wind: 2 mph from East

Location: Zeltweg

Current Time: Nov 24, 2014 at 4:12:33 PM

Latest Report: Nov 24, 2014 at 3:50 PM


Visibility: 9 mi

Pressure: 30.21 "Hg

Humidity: 93%

Dew point: 37 °F

Location of JudenburgLocation

Historic Weather in Judenburg — Graph

°F

Judenburg temperature yesterday

Maximum temperature yesterday: 39 °F (at 11:20 AM)
Minimum temperature yesterday: 36 °F (at 4:50 AM)
Average temperature yesterday: 38 °F

Past Weeks' High & Low Weather Summary

 TemperatureHumidityPressure
High61 °F (Nov 11, 1:50 PM)100% (Nov 9, 7:50 PM)30.42 "Hg (Nov 9, 7:50 PM)
Low30 °F (Nov 22, 5:50 AM)51% (Nov 16, 12:50 PM)29.59 "Hg (Nov 16, 4:50 AM)
Average45 °F87%29.97 "Hg
* Reported Nov 9 2:20 PM — Nov 24 2:50 PM, Judenburg, Weather by CustomWeather, © 2014

Note: Actual official high and low records may vary slightly from our data, if they occured in-between our weather recording intervals... More about our weather records

Advertising

Judenburg weather history for previous 24 hours

 ConditionsComfort  
Time TempWeatherWind HumidityBarometerVisibility
2:50 PM
Nov 24
39 °FBroken clouds.1 mph93%30.21 "Hg9 mi
2:20 PM39 °FPartly sunny.1 mph93%30.21 "Hg9 mi
1:50 PM39 °FPartly sunny.2 mph93%30.21 "Hg9 mi
1:20 PM39 °FPartly sunny.2 mph87%30.21 "Hg9 mi
12:50 PM39 °FLow clouds.2 mph87%30.21 "Hg9 mi
12:20 PM37 °FLow clouds.2 mph93%30.24 "Hg9 mi
11:50 AM37 °FLow clouds.1 mph93%30.24 "Hg9 mi
11:20 AM37 °FLow clouds.2 mph93%30.24 "Hg7 mi
10:50 AM37 °FLow clouds.1 mph93%30.27 "Hg6 mi
10:20 AM37 °FLow clouds.1 mph93%30.27 "Hg6 mi
9:50 AM36 °FLow clouds.2 mph100%30.27 "Hg4 mi
9:20 AM36 °FFog.2 mph100%30.27 "Hg2 mi
8:50 AM36 °FFog.2 mph100%30.27 "Hg1 mi
8:20 AM36 °FFog.3 mph100%30.27 "Hg1 mi
7:50 AM36 °FFog.2 mph100%30.27 "Hg1 mi
7:20 AM36 °FFog.3 mph100%30.27 "Hg1 mi
6:50 AM36 °FFog.3 mph100%30.27 "Hg2 mi
5:50 AM36 °FFog.2 mph100%30.27 "Hg2 mi
4:50 AM36 °FFog.2 mph100%30.27 "Hg2 mi
9:50 PM
Nov 23
37 °FFog.2 mph93%30.33 "Hg2 mi
8:50 PM37 °FFog.3 mph100%30.33 "Hg2 mi
7:50 PM37 °FFog.1 mph100%30.33 "Hg2 mi
6:50 PM37 °FFog.3 mph100%30.42 "Hg2 mi
5:50 PM37 °FFog.1 mph100%30.33 "Hg2 mi
4:50 PM37 °FFog.1 mph100%30.30 "Hg2 mi
4:20 PM37 °FFog.2 mph100%30.30 "Hg2 mi
Weather by CustomWeather, © 2014

See weather overviewHow to use our weather pages